JCSAT-5A

Last updated on Tue Sep 22 2026 00:03:11 GMT+0000 (Coordinated Universal Time)

1 29045U 06010A 26264.37267682 -.00000331 00000+0 00000+0 0 9994 2 29045 1.3493 82.9218 0001478 56.7977 126.7597 1.00270301 74735
UTC large
Height (km)
Speed (km/s)
/
Latitude / Longitude
Inclination (degrees)
Orbital Period (minutes)
Azimuth
Elevation
Range (km)
Doppler Factor

Next 0 passes for location: London (51.5072 / 0.1276)

No passes found over London.
JCSAT-5A